Weather History for Rantoul, IL

Change the Weather History Date:

Monday, November 4, 2013

  Actual Average (KCMI) Record (KCMI)
Temperature  
Mean Temperature 50 °F 47 °F  
Max Temperature 59 °F 57 °F 78 °F (2003)
Min Temperature 41 °F 37 °F 28 °F (2012)
Degree Days  
Heating Degree Days 15 18  
Month to date heating degree days 70  
Since 1 July heating degree days 531  
Cooling Degree Days 0 0  
Month to date cooling degree days 0  
Year to date cooling degree days 944  
Moisture  
Dew Point 40 °F    
Average Humidity 69    
Maximum Humidity 78    
Minimum Humidity 50    
Precipitation  
Precipitation 0.00 in 0.12 in 0.11 in (1948)
Month to date precipitation 0.45  
Year to date precipitation 34.15  
Sea Level Pressure  
Sea Level Pressure 30.23 in    
Wind  
Wind Speed 11 mph (SSE)    
Max Wind Speed 17 mph    
Max Gust Speed 24 mph    
Visibility 10 miles    
Events      
T = Trace of Precipitation, MM = Missing Value Source: NWS Daily Summary

Daily Weather History Graph

Daily Weather History Graph

Search for Another Location

Airport:

Trip Planner

Search our weather history database for the weather conditions in past years. The results will help you decide how hot, cold, wet, or windy it might be!

Date:

Astronomy

Nov. 04, 2013 Rise Set
Actual Time 6:25 AM CST 4:45 PM CST
Civil Twilight 5:57 AM CST 5:14 PM CST
Nautical Twilight 5:25 AM CST 5:46 PM CST
Astronomical Twilight 4:53 AM CST 6:18 PM CST
Moon 7:36 AM CST (11/4) 5:50 PM CST (11/4)
Length of Visible Light 11h 16m
Length of Day
10h 19m
New Moon, 2% of the Moon is Illuminated
Nov 4
New Moon
Nov 9
First Quarter
Nov 17
Full
Nov 25
Last Quarter
Dec 2
New

Hourly Weather History & Observations

Time (CST) Temp. Windchill Dew Point Humidity Pressure Visibility Wind Dir Wind Speed Gust Speed Precip Events Conditions
12:15 AM 42.4 °F 38.1 °F 35.2 °F 76% 30.26 in 10.0 mi SE 6.9 mph - N/A   Clear
12:35 AM 41.9 °F 36.9 °F 35.6 °F 78% 30.26 in 10.0 mi SE 8.1 mph - N/A   Clear
12:55 AM 41.9 °F 36.3 °F 35.6 °F 78% 30.26 in 10.0 mi SE 9.2 mph - N/A   Clear
1:15 AM 42.3 °F 36.3 °F 35.6 °F 77% 30.26 in 10.0 mi SE 10.4 mph - N/A   Clear
1:35 AM 42.6 °F 36.8 °F 35.6 °F 76% 30.26 in 10.0 mi SE 10.4 mph - N/A   Clear
1:55 AM 42.8 °F 36.6 °F 35.8 °F 76% 30.26 in 10.0 mi SE 11.5 mph - N/A   Clear
2:15 AM 42.8 °F 37.5 °F 36.0 °F 77% 30.26 in 10.0 mi SE 9.2 mph - N/A   Clear
2:35 AM 42.8 °F 37.5 °F 36.0 °F 77% 30.26 in 10.0 mi SE 9.2 mph - N/A   Clear
2:55 AM 43.2 °F 38.4 °F 36.0 °F 76% 30.26 in 10.0 mi SE 8.1 mph - N/A   Clear
3:15 AM 43.3 °F 38.6 °F 36.1 °F 76% 30.26 in 10.0 mi SE 8.1 mph - N/A   Clear
3:35 AM 43.3 °F 38.6 °F 36.5 °F 77% 30.26 in 10.0 mi SE 8.1 mph - N/A   Clear
3:55 AM 43.7 °F 38.1 °F 36.5 °F 76% 30.25 in 10.0 mi SE 10.4 mph - N/A   Clear
4:15 AM 43.7 °F 38.1 °F 36.9 °F 77% 30.25 in 10.0 mi SE 10.4 mph - N/A   Clear
4:35 AM 43.9 °F 38.8 °F 37.0 °F 77% 30.25 in 10.0 mi SE 9.2 mph - N/A   Clear
4:55 AM 43.7 °F 38.6 °F 37.0 °F 77% 30.25 in 10.0 mi SE 9.2 mph - N/A   Clear
5:15 AM 43.9 °F 39.3 °F 37.0 °F 77% 30.26 in 10.0 mi SE 8.1 mph - N/A   Clear
5:35 AM 43.9 °F 38.8 °F 37.0 °F 77% 30.26 in 10.0 mi SE 9.2 mph - N/A   Clear
5:55 AM 43.7 °F 39.1 °F 37.2 °F 78% 30.26 in 10.0 mi SE 8.1 mph - N/A   Clear
6:15 AM 43.7 °F 38.6 °F 37.4 °F 78% 30.25 in 10.0 mi SE 9.2 mph - N/A   Clear
6:35 AM 43.9 °F 37.9 °F 37.4 °F 78% 30.25 in 10.0 mi SE 11.5 mph - N/A   Clear
6:55 AM 44.4 °F 39.0 °F 37.4 °F 76% 30.25 in 10.0 mi SSE 10.4 mph - N/A   Clear
7:15 AM 44.6 °F 38.4 °F 37.4 °F 76% 30.24 in 10.0 mi SE 12.7 mph - N/A   Clear
7:35 AM 44.8 °F 39.0 °F 37.6 °F 76% 30.25 in 10.0 mi SSE 11.5 mph - N/A   Clear
7:55 AM 45.5 °F 39.6 °F 37.8 °F 74% 30.25 in 10.0 mi SSE 12.7 mph - N/A   Clear
8:15 AM 46.4 °F 40.4 °F 37.8 °F 72% 30.26 in 10.0 mi SSE 13.8 mph 19.6 mph N/A   Clear
8:35 AM 47.3 °F - 38.3 °F 71% 30.25 in 10.0 mi SSE 13.8 mph - N/A   Clear
8:55 AM 47.5 °F - 38.3 °F 70% 30.24 in 10.0 mi SSE 15.0 mph - N/A   Clear
9:15 AM 47.8 °F - 38.7 °F 70% 30.25 in 10.0 mi SSE 15.0 mph 19.6 mph N/A   Clear
9:35 AM 48.2 °F - 39.0 °F 71% 30.24 in 10.0 mi SSE 13.8 mph 21.9 mph N/A   Clear
9:55 AM 49.5 °F - 39.4 °F 68% 30.24 in 10.0 mi SSE 15.0 mph - N/A   Clear
10:15 AM 50.4 °F - 39.6 °F 66% 30.24 in 10.0 mi SSE 12.7 mph - N/A   Clear
10:35 AM 51.3 °F - 39.6 °F 64% 30.23 in 10.0 mi SSE 13.8 mph - N/A   Clear
10:55 AM 52.2 °F - 39.7 °F 63% 30.23 in 10.0 mi South 16.1 mph - N/A   Clear
11:15 AM 52.9 °F - 39.9 °F 61% 30.23 in 10.0 mi South 17.3 mph - N/A   Clear
11:35 AM 55.2 °F - 40.5 °F 58% 30.21 in 10.0 mi South 17.3 mph - N/A   Clear
11:55 AM 56.1 °F - 40.1 °F 55% 30.20 in 10.0 mi South 17.3 mph - N/A   Clear
12:15 PM 55.8 °F - 39.7 °F 55% 30.19 in 10.0 mi South 12.7 mph - N/A   Clear
12:35 PM 57.7 °F - 41.2 °F 54% 30.19 in 10.0 mi South 17.3 mph 24.2 mph N/A   Clear
12:55 PM 58.1 °F - 39.4 °F 50% 30.18 in 10.0 mi South 15.0 mph 24.2 mph N/A   Clear
1:15 PM 58.1 °F - 40.5 °F 52% 30.18 in 10.0 mi South 13.8 mph 24.2 mph N/A   Clear
1:35 PM 58.3 °F - 40.8 °F 52% 30.19 in 10.0 mi South 16.1 mph 20.7 mph N/A   Clear
1:55 PM 59.0 °F - 41.7 °F 53% 30.18 in 10.0 mi South 16.1 mph - N/A   Clear
2:15 PM 58.6 °F - 41.2 °F 52% 30.18 in 10.0 mi South 15.0 mph 23.0 mph N/A   Clear
2:35 PM 58.3 °F - 41.5 °F 54% 30.18 in 10.0 mi SSW 15.0 mph - N/A   Clear
2:55 PM 57.7 °F - 41.5 °F 55% 30.18 in 10.0 mi South 17.3 mph 23.0 mph N/A   Clear
3:15 PM 57.2 °F - 41.9 °F 57% 30.18 in 10.0 mi South 13.8 mph - N/A   Clear
3:35 PM 56.7 °F - 43.2 °F 61% 30.18 in 10.0 mi South 13.8 mph - N/A   Mostly Cloudy
3:55 PM 56.3 °F - 43.7 °F 63% 30.17 in 10.0 mi South 13.8 mph - N/A   Mostly Cloudy
4:15 PM 56.3 °F - 43.0 °F 61% 30.18 in 10.0 mi South 13.8 mph - N/A   Mostly Cloudy
4:35 PM 55.8 °F - 43.2 °F 63% 30.17 in 10.0 mi South 15.0 mph - N/A   Mostly Cloudy
4:55 PM 54.3 °F - 43.2 °F 66% 30.18 in 10.0 mi South 13.8 mph - N/A   Scattered Clouds
5:15 PM 53.2 °F - 43.0 °F 68% 30.19 in 10.0 mi South 12.7 mph - N/A   Clear
5:35 PM 52.7 °F - 42.8 °F 69% 30.20 in 10.0 mi South 11.5 mph - N/A   Clear
5:55 PM 51.6 °F - 42.8 °F 72% 30.20 in 10.0 mi South 10.4 mph - N/A   Clear
6:15 PM 51.8 °F - 43.0 °F 72% 30.20 in 10.0 mi South 10.4 mph - N/A   Clear
6:35 PM 50.9 °F - 43.0 °F 74% 30.21 in 10.0 mi South 9.2 mph - N/A   Scattered Clouds
6:55 PM 51.3 °F - 43.0 °F 73% 30.21 in 10.0 mi South 10.4 mph - N/A   Mostly Cloudy
7:15 PM 51.6 °F - 43.2 °F 73% 30.21 in 10.0 mi South 9.2 mph - N/A   Overcast
7:35 PM 51.8 °F - 43.3 °F 73% 30.22 in 10.0 mi South 8.1 mph - N/A   Overcast
7:55 PM 51.4 °F - 43.7 °F 75% 30.23 in 10.0 mi South 8.1 mph - N/A   Overcast
8:15 PM 51.8 °F - 43.7 °F 74% 30.24 in 10.0 mi South 8.1 mph - N/A   Overcast
8:35 PM 52.0 °F - 43.5 °F 73% 30.24 in 10.0 mi South 8.1 mph - N/A   Overcast
8:55 PM 51.8 °F - 43.7 °F 74% 30.24 in 10.0 mi South 9.2 mph - N/A   Overcast
9:15 PM 51.8 °F - 43.3 °F 73% 30.24 in 10.0 mi South 9.2 mph - N/A   Overcast
9:35 PM 51.3 °F - 43.2 °F 74% 30.24 in 10.0 mi South 10.4 mph - N/A   Overcast
9:55 PM 50.5 °F - 43.0 °F 75% 30.24 in 10.0 mi South 9.2 mph - N/A   Mostly Cloudy
10:15 PM 50.9 °F - 43.0 °F 74% 30.24 in 10.0 mi South 8.1 mph - N/A   Overcast
10:35 PM 51.8 °F - 42.8 °F 71% 30.24 in 10.0 mi South 10.4 mph - N/A   Overcast
10:55 PM 52.0 °F - 42.8 °F 71% 30.24 in 10.0 mi South 9.2 mph - N/A   Overcast
11:15 PM 52.0 °F - 42.8 °F 71% 30.24 in 10.0 mi South 8.1 mph - N/A   Overcast
11:35 PM 51.8 °F - 43.0 °F 72% 30.25 in 10.0 mi South 6.9 mph - N/A   Overcast
11:55 PM 51.8 °F - 43.2 °F 72% 30.26 in 10.0 mi SSW 5.8 mph - N/A   Overcast